Welcome to the New NWS' Forecast!
Most changes are behind the scenes, but click here for differences you might notice.
Latest weather observations around

Camp Springs / Andrews Air Force Base (KADW)

Using English Units (Switch to International System of Units)
Date/ Time (EDT) Wind (mph) Vis. (mi) Weather Sky Cond. Temp (°F) Rel. Humidity Wind Chill (°F) Heat Index (°F) Pressure Precip. (in)
Air Dwpt 6 hour Altimeter (inHg) Sea level (inHg) 1 hr 3 hr 6 hr
Max Min
Oct 17 09:56   10 Clear CLR 58 35     43%     30.08 30.1      
Oct 17 08:56 WNW 5 10 Clear CLR 54 40     58%     30.08 30.1      
Oct 17 07:56 NW 8 10 Clear CLR 52 39     63%     30.07 30.09      
Oct 17 06:56 NW 8 10 Clear CLR 53 44     70%     30.07 30.09      
Oct 17 06:01 WNW 5 10 Partly Cloudy SCT019 54 50     88%     30.08 30.1      
Oct 17 05:56 NW 5 10 Mostly Cloudy BKN018 55 50     84%     30.08 30.1      
Oct 17 05:51 NW 5 10 Mostly Cloudy SCT015 BKN021 55 50     82%     30.08 30.1      
Oct 17 05:16 W 6 10 Cloudy OVC015 55 50     82%     30.06 30.08      
Oct 17 04:56 W 5 10 Cloudy OVC014 55 50     85%     30.05 30.07      
Oct 17 04:31 SW 5 10 Cloudy OVC014 55 50     82%     30.05 30.07      
Oct 17 03:56 SW 5 10 Cloudy OVC017 55 50     83%     30.04 30.06      
Oct 17 03:16 SSW 5 10 Cloudy OVC019 55 50     82%     30.04 30.06      
Oct 17 02:56 SSW 6 10 Cloudy OVC022 55 49     82%     30.05 30.07      
Oct 17 01:56 SSW 6 10 Mostly Cloudy BKN027 BKN220 54 48     79%     30.07 30.09      
Oct 17 00:56 SW 6 10 Mostly Cloudy BKN028 BKN160 55 47     75%     30.09 30.11      
Oct 17 00:26 WSW 5 10 Cloudy OVC029 55 48     77%     30.09        
Oct 16 23:56 SW 6 10 Cloudy OVC032 55 47     76%     30.09        
Oct 16 23:11 SSW 5 10 Cloudy OVC031 55 48     77%     30.1        
Oct 16 22:56 SW 3 10 Cloudy OVC029 54 48     78%     30.1        
Oct 16 22:16 Calm 10 Mostly Cloudy BKN028 54 48     82%     30.11        
Oct 16 21:56 SSW 7 10 Mostly Clear FEW027 53 47     80%     30.11        
Oct 16 20:56 SW 6 10 Clear CLR 54 47     77%     30.12 30.14      
Oct 16 19:56 SW 5 10 Clear   53 47     79%     30.12 30.14      
Oct 16 18:56 Calm 10 Clear CLR 54 44     68%     30.12 30.14      
Oct 16 17:56 S 3 10 Clear CLR 56 45     66%     30.11 30.13      
Oct 16 16:56 NNW 9 10 Clear CLR 58 37     44%     30.11 30.13      
Oct 16 15:56 NW 11 10 Mostly Clear FEW200 59 35     40%     30.12 30.14      
Oct 16 14:56 N 5 10 Clear CLR 61 39     45%     30.14 30.16      
Oct 16 13:56 NNW 9 10 Clear CLR 60 38     45%     30.16 30.18      
Oct 16 12:56 NW 8 10 Mostly Cloudy FEW120 SCT160 BKN200 58 36     44%     30.19 30.21      
Oct 16 11:56 N 6 10 Clear CLR 58 41     52%     30.21 30.23      
Oct 16 10:56 NNW 7 10 Clear CLR 54        %     30.22 30.24      
Oct 16 09:56 NNW 10 10 Partly Cloudy SCT150 54        %     30.22 30.24      
Oct 16 08:56 NNW 9 10 Clear CLR 54        %     30.21 30.23      
Oct 16 07:56 NNW 10 10 Cloudy OVC150 54        %     30.18 30.2      
Oct 16 06:56 NNW 13 10 Mostly Cloudy BKN130 55        %     30.16 30.18      
Oct 16 05:56 NNW 11 10 Cloudy OVC120 56        %     30.14 30.16      
Oct 16 04:56 NNW 17 10 Mostly Cloudy BKN120 58        %     30.12 30.14      
Oct 16 03:56 NNW 16 10 Cloudy SCT048 BKN065 OVC130 59        %     30.11 30.13      
Oct 16 02:56 NW 13 10 Mostly Cloudy BKN048 BKN075 BKN130 61        %     30.09 30.11      
Oct 16 01:56 NW 14 10 Mostly Cloudy BKN043 63        %     30.08 30.1 0   0
Oct 16 00:58 NW 13 10 Cloudy OVC037 64        %     30.04 30.06      
Oct 16 00:56 NW 14 10 Light Drizzle OVC037 65        %     30.04 30.06 0    
Oct 16 00:33   10 Light Drizzle SCT022 OVC031 66        %     30.03 30.05      
Oct 16 00:06   10 Cloudy SCT016 BKN024 BKN055 OVC120 70        %     30 30.01      
Oct 15 23:56 WNW 13 10 Mostly Cloudy FEW023 BKN060 BKN120 70        %     29.99 30.01      
Oct 15 22:56 SSW 11 10 Partly Cloudy SCT110 70        %     29.96 29.98      
Oct 15 21:56 SW 9 10 Mostly Cloudy BKN130 70        %     29.98 30      
Oct 15 20:56 SSW 13 10 Mostly Cloudy BKN130 71        %     29.97 29.99      
Oct 15 19:56 SW 16 10 Mostly Clear FEW140 72 64     77%   72 29.97 29.99     0
Oct 15 18:56 SSW 10 10 Mostly Cloudy BKN150 70 64     81%   71 29.96 29.98      
Oct 15 17:56 SSW 10 10 Mostly Cloudy BKN085 69 64     85%     29.97 29.99      
Oct 15 16:56 SSW 8 10 Mostly Clear FEW095 69        %     29.97 29.99 0 0  
Oct 15 16:15 SSW 11 10 Mostly Clear FEW014 70        %     29.99 30.01      
Oct 15 15:59 SSW 13 10 Light Rain FEW023 70        %     30 30.02      
Oct 15 15:56 SSW 13 10 Clear CLR 70        %     30.01 30.03      
Oct 15 14:56 SSW 9 10 Mostly Clear FEW200 69        %     30.01 30.03      
Oct 15 13:56 SW 10 10 Partly Cloudy FEW025 FEW070 SCT200 66        %     30.03 30.05 0   0
Oct 15 13:44 SW 11 10 Partly Cloudy FEW025 SCT075 66        %     30.04 30.06      
Oct 15 13:28 SW 13 10 Light Drizzle SCT075 66        %     30.04 30.06      
Oct 15 13:08 SW 13 10 Partly Cloudy FEW013 FEW085 SCT170 66        %     30.05 30.07      
Oct 15 12:59 SW 13 10 Light Drizzle FEW013 FEW085 SCT170 66        %     30.05 30.07      
Oct 15 12:56 SW 14 10 Partly Cloudy FEW013 FEW140 FEW160 SCT180 66        %     30.05 30.07      
Oct 15 11:56 SW 13 10 Partly Cloudy FEW012 SCT160 SCT200 67        %     30.07 30.09      
Oct 15 11:36 SW 13 10 Mostly Cloudy SCT011 SCT150 BKN200 66        %     30.07 30.09      
Oct 15 11:31 SSW 15 10 Mostly Cloudy BKN010 BKN160 BKN190 66        %     30.07 30.09      
Oct 15 10:56 SSW 16 10 Cloudy OVC008 63        %     30.08 30.1   0  
Oct 15 10:41   10 Cloudy OVC008 63        %     30.09 30.11      
Oct 15 10:37   10 Cloudy OVC007 63        %     30.09 30.11      
Oct 15 09:56 SSW 14 10 Mostly Cloudy BKN009 BKN014 61        %     30.1 30.12 0    
Oct 15 09:49 SSW 13 10 Mostly Cloudy BKN009 BKN014 61        %     30.11 30.13      
Oct 15 09:34 SSW 11 10 Mostly Cloudy SCT009 BKN015 61        %     30.11 30.13      
Oct 15 09:29 SSW 11 10 Mostly Cloudy SCT007 BKN013 61        %     30.11 30.13      
Oct 15 09:24 SSW 11 10 Mostly Cloudy SCT007 BKN014 59        %     30.11 30.13      
Oct 15 09:21 SSW 13 10 Light Rain SCT007 OVC015 59        %     30.11 30.13      
Oct 15 09:01 SSW 9 9 Light Rain SCT005 OVC019 59        %     30.12 30.14      
Oct 15 08:56 SSW 11 5 Light Rain and Fog/Mist SCT005 BKN011 BKN017 OVC025 59        %     30.12 30.14 0    
Oct 15 08:51 SSW 13 6 Light Rain and Fog/Mist SCT005 BKN011 OVC018 59        %     30.12 30.14      
Oct 15 07:56 SW 11 5 Light Rain and Fog/Mist OVC005 58        %     30.12 30.14 0   0
Oct 15 07:38 SSW 9 8 Light Rain BKN005 OVC010 59        %     30.12 30.14      
Oct 15 07:06 SSW 8 10 Light Drizzle BKN006 BKN023 OVC029 59        %     30.11 30.13      
Oct 15 07:01 SSW 9 10 Clear   59        %     30.11 30.13      
Oct 15 06:56 S 9 10 Clear   58        %     30.11 30.13 0    
Oct 15 06:55 S 9 10 Clear   59        %     30.12 30.14      
Oct 15 06:26 SSW 9 10 Light Drizzle FEW006 OVC025 57        %     30.12 30.14      
Oct 15 06:25 SSW 10 10 Cloudy FEW005 OVC025 57        %     30.12 30.14      
Oct 15 06:01 SSW 8 10 Light Rain FEW005 OVC025 57        %     30.13 30.15      
Oct 15 05:56 SSW 8 10 Light Rain FEW004 SCT024 OVC030 57        %     30.12 30.14 0    
Oct 15 05:41 SSW 8 6 Rain and Fog/Mist FEW004 FEW028 OVC037 57        %     30.12 30.14      
Oct 15 05:31 SSW 8 9 Heavy Rain SCT026 OVC037 57        %     30.12 30.14      
Oct 15 05:06 SSW 5 10 Light Rain BKN028 57        %     30.13 30.15      
Oct 15 04:56 SSW 3 10 Light Rain BKN030 BKN070 57        %     30.13 30.15 0 0  
Oct 15 04:48 S 5 10 Light Rain BKN030 BKN070 57        %     30.12 30.14      
Oct 15 03:56 S 3 10 Cloudy OVC060 57        %     30.13 30.15      
Oct 15 02:56 S 3 10 Cloudy OVC032 57        %     30.15 30.17      
Oct 15 01:56 S 5 10 Cloudy OVC033 56        %     30.17 30.19     0
Oct 15 00:56 Calm 10 Clear   56        %     30.18 30.2 0    
Oct 15 00:10 SSW 3 10 Cloudy OVC032 57        %     30.19 30.21      
Oct 15 00:01 SSW 3 10 Light Drizzle OVC030 57        %     30.19 30.21      
Oct 14 23:56 SW 5 10 Cloudy OVC030 57        %     30.2 30.22      
Oct 14 23:36 SW 3 10 Cloudy OVC029 57        %     30.19 30.21      
Oct 14 22:56 Calm 10 Cloudy OVC030 56        %     30.2 30.22      
Oct 14 22:46 Calm 10 Cloudy OVC030 57        %     30.2 30.22      
Oct 14 21:56 Calm 10 Cloudy BKN029 OVC035 56        %     30.2 30.22      
Oct 14 20:56 Calm 10 Cloudy OVC038 56        %     30.2 30.22      
Oct 14 19:56 Calm 10 Cloudy FEW033 OVC045 56        %     30.2 30.22      
Oct 14 18:56 Calm 10 Cloudy OVC050 57        %     30.2 30.22      
Oct 14 17:56 Calm 10 Cloudy OVC065 57        %     30.2 30.22      
Oct 14 16:56 SE 3 10 Mostly Cloudy BKN070 59        %     30.2 30.22      
Oct 14 15:56 Calm 10 Mostly Cloudy BKN080 58 48     69%     30.21 30.23      
Oct 14 14:56 SSE 5 7 Mostly Cloudy BKN090 58 47     69%     30.21 30.23      
Oct 14 14:16 Calm 3 Haze SCT100 SCT180 BKN200 57 46     67%     30.22 30.24      
Oct 14 14:13 Calm 2.75 Haze SCT100 SCT180 BKN200 57 46     67%     30.22 30.24      
Oct 14 13:56 S 6 4 Haze SCT100 BKN140 BKN180 57 47     68%     30.22 30.24     0
Oct 14 12:56 Calm 10 Partly Cloudy SCT100 SCT180 54 46     74%     30.25 30.27      
Oct 14 11:56 Calm 10 Partly Cloudy SCT100 52 45     79%     30.26 30.28 0    
Oct 14 11:43 Calm 10 Partly Cloudy FEW044 SCT100 52 46     82%     30.25 30.27      
Oct 14 11:15 Calm 10 Light Drizzle SCT045 52 45     76%     30.27 30.29      
Oct 14 11:01 Calm 10 Mostly Clear FEW045 52 45     76%     30.27 30.29      
Oct 14 10:56 Calm 10 Light Rain FEW043 51 44     78%     30.27 30.29 0 0  
Oct 14 10:31 Calm 10 Light Drizzle FEW042 50 45     82%     30.27 30.29      
Oct 14 09:56 Calm 10 Clear CLR 51 43     75%     30.26 30.28      
Oct 14 08:56 N 5 10 Partly Cloudy SCT046 50 43     76% 48   30.25 30.27      
Oct 14 07:56 NW 3 10 Mostly Cloudy BKN150 BKN210 48 42     80% 47   30.21 30.23      
Oct 14 06:56 Calm 10 Mostly Cloudy BKN160 48 39     71%     30.2 30.22      
Oct 14 05:56 Calm 10 Mostly Clear FEW170 46 43     90%     30.19 30.21      
Oct 14 04:56 Calm 10 Clear CLR 45 43     92%     30.19 30.21      
Oct 14 03:56 Calm 10 Clear CLR 45 39     78%     30.18 30.2      
Oct 14 02:56 N 5 10 Clear CLR 46 39     76% 44   30.17 30.19      
Oct 14 01:56 Calm 10 Clear CLR 46 39     77%     30.17 30.19      
Oct 14 00:56 Calm 10 Clear CLR 46 38     75%     30.17 30.19      
Oct 13 23:56 NNW 8 10 Clear CLR 48 38     68% 44            
Oct 13 22:56 NNW 5 10 Clear CLR 47 38     71% 45   30.13 30.15      
Oct 13 21:56 N 3 10 Clear CLR 47 38     73% 46   30.11 30.13      
Oct 13 20:56 NNW 6 10 Clear CLR 50 38     65% 48   30.1 30.12      
Oct 13 19:56 N 8 10 Clear CLR 48 40     74% 44   30.07 30.09      
Oct 13 18:56 NW 10 10 Partly Cloudy SCT048 54 37     54%     30.05 30.07      
Oct 13 17:56 NW 9 10 Partly Cloudy SCT048 56 37     50%     30.02 30.04      
Oct 13 16:56 WNW 9 10 Partly Cloudy SCT049 58 38     48%     30 30.02      
Oct 13 15:56 WNW 15 10 Mostly Cloudy BKN049 58 37     45%     29.99 30.01      
Oct 13 14:56 NNW 14 10 Mostly Cloudy BKN047 57 38     49%     29.98 30      
Oct 13 13:56 NW 18 10 Mostly Clear FEW047 58 39     48%     29.96 29.98     0
Oct 13 12:56 NW 16 10 Mostly Clear FEW040 58 40     51%     29.97 29.99      
Oct 13 12:48 NNW 16 10 Mostly Cloudy SCT039 BKN055 59 43     55%     29.96 29.98      
Oct 13 11:56 WNW 10 10 Mostly Cloudy FEW027 SCT038 SCT045 BKN060 55 44     66%     29.96 29.98      
Oct 13 11:01 WNW 7 10 Mostly Cloudy SCT020 BKN037 BKN048 54 46     77%     29.95 29.97      
Oct 13 10:56 NNW 9 10 Mostly Cloudy BKN020 BKN035 BKN048 53 47     78%     29.95 29.97   0  
Oct 13 10:46 WNW 7 10 Mostly Cloudy BKN020 BKN026 BKN049 54 46     77%     29.94 29.96      
Oct 13 09:56 Calm 10 Mostly Cloudy SCT050 BKN060 51 45     79%     29.92 29.94      
Notice The following observation data may not be complete
Oct 13 08:10   10 Light Rain FEW090          %              
Oct 13 07:59 NE 6 10 Mostly Clear FEW090 50 46     87%     29.88 29.9      
Oct 13 05:56 NNW 6 10 Light Drizzle OVC055 52 45     78%     29.87 29.89 0    
Oct 13 00:56 N 3 10 Partly Cloudy SCT210 51 44     76%     29.82 29.84      
Notice The following observation data may not be complete
Oct 12 19:56   10 Clear CLR          %              
Oct 12 17:56 NW 9 10 Clear CLR 60 41     49%     29.79 29.81      
Oct 12 13:06 NNW 16 10 Clear CLR 63 41     45%     29.8 29.82      
Notice The following observation data may not be complete
Oct 12 11:56   10 Mostly Clear FEW041          %              
Oct 12 10:56 NW 17 10 Mostly Clear FEW038 60 44     55%     29.8        
Oct 12 08:56 NNW 16 10 Clear CLR 58 43     59%     29.78        
Oct 12 07:56   10 Clear CLR 56 43     61%     29.75       0
Oct 12 06:56 NW 16 10 Clear CLR 56 44     63%     29.72 29.74      
Oct 11 23:27   10 Rain BKN007 70 70     100%     29.5 29.51      
Oct 11 23:01   10 Rain OVC022 70 70     100%     29.49 29.5      
Oct 11 17:56 NE 7 7 Light Rain and Fog/Mist FEW007 BKN015 OVC065 76 75     96%   78 29.57 29.58 0    
Oct 11 13:21 S 5 10 Mostly Cloudy SCT018 BKN170 81 73     79%   85 29.68 29.69      
Oct 11 12:35 SSW 7 10 Mostly Cloudy SCT016 SCT021 BKN041 BKN190 79 73     84%   82 29.7 29.71      
Oct 11 12:30 SSW 8 10 Mostly Cloudy BKN015 BKN021 BKN190 79 73     84%   82 29.7 29.71      
Notice The following observation data may not be complete
Oct 11 12:21   10 Light Drizzle BKN015 BKN022          %              
Oct 11 12:11 SSW 9 10 Mostly Cloudy BKN015 BKN022 BKN029 BKN180 79 73     84%   82 29.71 29.72      
Oct 11 11:56 SSW 8 10 Mostly Cloudy BKN014 BKN027 BKN180 79 73     83%   82 29.71 29.72      
Oct 11 10:56 S 10 10 Mostly Cloudy BKN013 BKN021 77 73     88%   79 29.71 29.72      
Oct 11 08:56 S 11 10 Mostly Cloudy BKN008 76 74     93%   78 29.74 29.75      
Notice The following observation data may not be complete
Oct 11 08:21   10 Partly Cloudy SCT009          %              
Oct 11 08:01 S 13 10 Cloudy OVC008 75 73     94%   77 29.75 29.76      
Oct 11 07:22 S 7 3 Light Rain and Fog/Mist OVC005 73 73     100%   75 29.75        
Oct 11 07:21 S 8 2.25 Light Rain and Fog/Mist OVC005 73 73     100%   75 29.75        
Oct 11 07:20 S 8 1.88 Light Rain and Fog/Mist OVC005 73 73     100%   75 29.75        
Oct 11 07:19 S 8 1.88 Light Rain and Fog/Mist BKN006 OVC010 73 73     100%   75 29.75        
Oct 11 07:14 S 8 1.5 Light Rain and Fog/Mist BKN004 OVC010 73 73     100%   75 29.75        
Oct 11 07:13 S 7 1.37 Heavy Rain and Fog/Mist BKN004 OVC010 73 73     100%   75 29.75        
Oct 11 07:12 S 7 1.5 Heavy Rain and Fog/Mist BKN006 OVC010 73 73     100%   75 29.75        
Oct 11 06:32 SSE 8 7 Light Rain FEW002 BKN007 OVC012 73 73     100%   75 29.76 29.77      
Oct 11 05:57 SSE 9 10 Light Rain BKN009 OVC013 73 72     94%   75 29.77 29.78      
Oct 11 00:56 SSE 9 10 Clear CLR 74 71     89%   75 29.87 29.88      
Oct 10 17:56 SSE 6 10 Clear CLR 77 70     79%   79 29.96 29.97      
Oct 10 15:56   10 Mostly Clear FEW070 80 68     67%   83 29.98 29.99      
Oct 10 13:56 S 9 10 Mostly Cloudy FEW007 BKN016 80 71     73%   83 30.03 30.04     0
Oct 10 12:07 S 5 10 Mostly Cloudy SCT007 BKN016 77 72     83%   78 30.08 30.09      
Oct 10 12:06 S 3 10 Light Drizzle SCT007 BKN016 77 72     83%   78 30.08 30.09      
Notice The following observation data may not be complete
Oct 10 10:40   10 Mostly Cloudy BKN013 BKN021          %              
Oct 10 10:35 SE 9 10 Mostly Cloudy FEW010 SCT015 BKN020 75 73     94%   77 30.11 30.12      
Oct 10 10:32 SSE 5 10 Light Rain SCT010 BKN020 77 73     89%   79 30.11 30.12      
Notice The following observation data may not be complete
Oct 10 07:17   2.25 Fog/Mist VV004          %              
Oct 10 07:15 S 5 1.63 Fog/Mist VV004 70 70     100%     30.13 30.14      
Oct 10 07:14 S 3 1.37 Fog/Mist OVC004 72 72     100%   73 30.13 30.14      
Oct 10 07:13 S 3 1.25 Fog/Mist VV004 72 72     100%   73 30.13 30.14      
Oct 10 07:12 S 3 1.12 Fog/Mist VV004 72 72     100%   73 30.13 30.14      
Oct 10 07:11 S 3 1 Fog/Mist VV003 72 72     100%   73 30.13 30.14      
Oct 10 06:56 Calm 1 Fog/Mist VV002 71 71     100%   72 30.13 30.14      
Oct 10 06:51 Calm 1 Fog/Mist VV002 70 70     100%     30.13 30.14      
Oct 10 06:19 Calm 1.5 Fog/Mist VV002 70 70     100%     30.13 30.14      
Oct 10 06:18 Calm 1.25 Fog/Mist VV002 70 70     100%     30.13 30.14      
Oct 10 06:16 Calm 1.12 Fog/Mist VV002 70 70     100%     30.13 30.14      
Oct 10 06:03 S 5 1 Fog/Mist VV002 70 70     100%     30.13 30.14      
Notice The following observation data may not be complete
Oct 10 05:54   0.63 Fog/Mist VV002          %              
Oct 10 05:42 S 3 0.5 Fog VV002 70 70     100%     30.13 30.14      
Notice The following observation data may not be complete
Oct 10 04:12   0.75 Fog/Mist VV001          %              
Notice The following observation data may not be complete
Oct 10 04:08   0.63 Fog/Mist BKN001          %              
Oct 10 04:07 Calm 0.75 Fog/Mist BKN001 70 70     100%     30.14 30.15      
Oct 10 04:06 Calm 1 Fog/Mist BKN001 70 70     100%     30.13 30.14      
Oct 10 04:05 Calm 1.12 Fog/Mist BKN001 70 70     100%     30.14 30.15      
Oct 10 04:03 Calm 1.25 Fog/Mist BKN001 70 70     100%     30.13 30.14      
Oct 10 04:02 Calm 1.37 Fog/Mist BKN001 70 70     100%     30.13 30.14      
Oct 10 03:59 Calm 1.88 Fog/Mist BKN001 70 70     100%     30.14 30.15      
Oct 10 03:56 Calm 2.25 Fog/Mist BKN001 69 69     100%     30.13 30.14      
Oct 10 01:41 E 3 10 Clear   70 70     100%     30.18 30.19      
Oct 10 00:56 Calm 10 Clear   70 70     100%     30.19 30.2      
Oct 09 18:56 ESE 6 10 Clear CLR 74 69     84%   75 30.21 30.22      
Oct 09 10:21 SSE 6 10 Partly Cloudy SCT011 75 70     83%   76 30.32 30.33      
Oct 09 09:26 SSE 5 7 Cloudy OVC007 73 73     100%   75 30.33 30.35      
Notice The following observation data may not be complete
Oct 09 07:56   5 Fog/Mist OVC003          %              
Notice The following observation data may not be complete
Oct 09 05:21   10 Cloudy BKN004 OVC021          %              
Notice The following observation data may not be complete
Oct 09 04:56   10 Cloudy FEW007 OVC018          %              
Notice The following observation data may not be complete
Oct 09 04:11   10 Cloudy OVC011          %              
Oct 09 04:06 Calm 10 Cloudy OVC009 70 70     100%     30.31 30.32      
Oct 09 03:56 Calm 10 Cloudy BKN010 OVC014 70 70     99%   72 30.32 30.33      
Notice The following observation data may not be complete
Oct 09 02:36   10 Mostly Cloudy BKN011          %              
Oct 09 01:56 ESE 3 10 Clear CLR 69 69     100%     30.34 30.35      
Notice The following observation data may not be complete
Oct 09 00:56   10 Clear CLR          %              
Oct 08 23:56 Calm 10 Clear CLR 70 69     98%     30.34 30.35      
Oct 08 14:56 E 6 10 Partly Cloudy FEW028 SCT060 SCT210 81 70     70%   85 30.3 30.31      
Oct 08 12:26 Calm 10 Cloudy SCT016 OVC038 79 72     79%   82 30.34 30.35      
Notice The following observation data may not be complete
Oct 08 07:19   2.75 Fog/Mist CLR          %              
Notice The following observation data may not be complete
Oct 08 05:55   1.75 Fog/Mist CLR          %              
Notice The following observation data may not be complete
Oct 08 05:53   2.75 Fog/Mist CLR          %              
Oct 08 00:56 Calm 10 Clear CLR 68 68     100%     30.25 30.27 0    
Oct 07 23:56 Calm 10 Clear CLR 71 71     100%   72 30.25 30.27 0    
Oct 07 22:56 Calm 10 Clear CLR 72 72     100%   74 30.24 30.25 0 0  
Oct 07 19:56 Calm 10 Clear CLR 74 73     97%   76 30.21 30.22 0   0
Oct 07 15:56 Calm 10 Clear CLR 83 72     70%   88 30.19 30.2      
Notice The following observation data may not be complete
Oct 07 14:21   10 Partly Cloudy SCT014          %              
Oct 07 11:56 SW 3 10 Cloudy OVC009 75 70     85%   76 30.23 30.24      
Notice The following observation data may not be complete
Oct 07 11:31   10 Cloudy OVC008          %              
Oct 07 11:01 SW 5 10 Cloudy OVC006 73 70     89%   75 30.24 30.25      
Oct 07 10:56 SW 5 10 Cloudy OVC005 73 70     90%   74 30.24 30.25      
Oct 07 10:01 SSW 6 6 Fog/Mist OVC003 72 72     100%   73 30.23 30.24      
May 14 21:08 SE 13 10 Light Rain OVC032 66 64     94%     29.94 29.96      
May 14 20:01 NNE 9 3 Heavy Rain and Fog/Mist OVC023 66 64     94%     29.99 30.01      
May 14 19:52   4 Heavy Rain and Fog/Mist OVC018 66 64     94%     29.99 30.01      
May 14 19:39 NNW 14 1.88 Thunderstorms and Heavy Rain and Fog/Mist OVC012 66 64     94%     30 30.02      
May 14 19:12   8 Thunderstorms and Heavy Rain FEW004 72 66     83%   72 29.98 30      
May 14 18:57 ESE 6 10 Light Rain FEW120 72 68     88%   73 29.93 29.95      
May 13 19:58 E 7 10 Cloudy OVC005 61 59     94%     30.02 30.04      
May 13 13:30 E 11 10 Clear   66 64     94%     30.06 30.08      
May 13 09:56 ENE 7 10 Cloudy OVC005 65 65     98%     30.09 30.11 0    
May 13 07:17 NE 3 10 Mostly Cloudy BKN003 63 63     100%     30.06 30.07      
May 13 07:16 ENE 5 10 Light Rain BKN003 63 63     100%     30.06 30.07      
May 13 05:26   5 Heavy Rain and Fog/Mist OVC006 64 63     94%     30.09 30.1      
May 12 20:56   10 Thunderstorms and Rain FEW090 75 68     81%   76   29.98 0    
May 12 08:56 ENE 5 10 Clear   69 62     78%     30.07 30.09      
May 11 20:56 ESE 6 10 Mostly Clear FEW080 71 53     54%   70 30.04 30.06      
Jun 11 17:58 SW 11 10 Clear   90 62     38%   91 30.07 30.08      
Jun 11 15:58 SSW 11 10 Clear CLR 92 58     33%   91 30.09 30.1      
Jun 09 00:58 Calm 10 Clear CLR 53 50     88%     29.82 29.84      
Notice The following observation data may not be complete
Jun 08 01:58   10 Clear CLR          %              
Jun 07 23:58 N 5 10 Clear CLR 53 50     88%     30.04 30.06      
Notice The following observation data may not be complete
Jun 07 18:58   10 Cloudy OVC038          %              
Jun 07 16:18 ENE 8 10 Mostly Cloudy BKN029 BKN200 64 54     68%     29.99 30.01      
Jun 07 15:48 ENE 11 10 Mostly Cloudy SCT023 BKN031 BKN160 64 54     68%     29.99 30.01      
Notice The following observation data may not be complete
Jun 07 13:23   10 Mostly Cloudy FEW022 BKN030          %              
Jun 07 11:13 E 9 10 Cloudy OVC014 61 55     82%     29.97 29.99      
Jun 07 09:18 E 9 10 Cloudy BKN014 OVC024 61 55     82%     29.95 29.97      
Jun 06 04:19 W 6 1.25 Fog/Mist SCT001 64 64     100%     29.66 29.67      
Jun 06 04:17 W 6 0.75 Fog/Mist VV001 64 64     100%     29.66 29.67      
Jun 06 01:10 Calm 1.25 Fog/Mist FEW041 63 63     100%     29.68 29.7      
Jun 06 00:57 Calm 0.75 Fog/Mist FEW065 63 63     100%     29.69 29.7